Larissa, Greece

12:46 PM EET on February 22, 2017 (GMT +0200)
Larisa Air Base

Weather History for LGLR - September, 2013

Change the Weather History Date:

Friday, September 6, 2013

  Actual Average Record
Temperature  
Mean Temperature 74 °F -  
Max Temperature 87 °F 82 °F - ()
Min Temperature 61 °F 56 °F - ()
Cooling Degree Days 9    
Growing Degree Days 24 (Base 50)    
Moisture  
Dew Point 54 °F    
Average Humidity 50    
Maximum Humidity 72    
Minimum Humidity 23    
Precipitation  
Precipitation 0.00 in 0.04 in - ()
Sea Level Pressure  
Sea Level Pressure 29.91 in    
Wind  
Wind Speed 3 mph ()    
Max Wind Speed 16 mph    
Max Gust Speed -    
Visibility 6.2 miles    
Events      
T = Trace of Precipitation, MM = Missing Value Source: Averaged Metar Reports

Daily Weather History Graph

Daily Weather History Graph

Search for Another Location

Airport or City:

Trip Planner

Search our weather history database for the weather conditions in past years. The results will help you decide how hot, cold, wet, or windy it might be!

Date:

Astronomy

Sep. 06, 2013 Rise Set
Actual Time 7:03 AM EEST 7:53 PM EEST
Civil Twilight 6:35 AM EEST 8:20 PM EEST
Nautical Twilight 6:03 AM EEST 8:53 PM EEST
Astronomical Twilight 5:29 AM EEST 9:26 PM EEST
Moon 7:56 AM EEST (9/6) 8:08 PM EEST (9/6)
Length of Visible Light 13h 45m
Length of Day
12h 50m
New Moon, 1% of the Moon is Illuminated
Sep 6
New Moon
Sep 12
First Quarter
Sep 19
Full
Sep 27
Last Quarter
Oct 5
New

Hourly Weather History & Observations

Time (EEST) Temp. Heat Index Dew Point Humidity Pressure Visibility Wind Dir Wind Speed Gust Speed Precip Events Conditions
12:50 AM 68.0 °F - 53.6 °F 60% 29.95 in 6.2 mi Calm Calm - N/A   Partly Cloudy
1:50 AM 68.0 °F - 53.6 °F 60% 29.95 in - Calm Calm - N/A   Clear
2:50 AM 66.2 °F - 53.6 °F 64% 29.92 in - Calm Calm - N/A   Clear
3:00 AM 67 °F - 54 °F 54% 29.94 in 6 mi Calm Calm - -  
3:50 AM 64.4 °F - 53.6 °F 68% 29.92 in - Calm Calm - N/A   Clear
4:50 AM 64.4 °F - 53.6 °F 68% 29.92 in - SW 5.8 mph - N/A   Clear
5:50 AM 62.6 °F - 53.6 °F 72% 29.92 in - Calm Calm - N/A   Clear
6:50 AM 64.4 °F - 53.6 °F 68% 29.92 in - Calm Calm - N/A   Clear
7:50 AM 62.6 °F - 51.8 °F 68% 29.92 in 6.2 mi Calm Calm - N/A   Partly Cloudy
8:50 AM 69.8 °F - 53.6 °F 56% 29.95 in 6.2 mi Calm Calm - N/A   Partly Cloudy
9:00 AM 71 °F - 54 °F 45% 29.94 in 6 mi Calm Calm - -   Scattered Clouds
9:50 AM 77.0 °F - 55.4 °F 47% 29.95 in 6.2 mi Calm Calm - N/A   Partly Cloudy
10:50 AM 78.8 °F - 55.4 °F 44% 29.95 in 6.2 mi ENE 4.6 mph - N/A   Partly Cloudy
11:50 AM 82.4 °F 81.4 °F 53.6 °F 37% 29.95 in 6.2 mi ENE 4.6 mph - N/A   Partly Cloudy
12:50 PM 84.2 °F - 51.8 °F 33% 29.92 in 6.2 mi East 8.1 mph - N/A   Partly Cloudy
1:50 PM 86.0 °F 84.2 °F 53.6 °F 33% 29.92 in 6.2 mi SE 9.2 mph - N/A   Partly Cloudy
2:50 PM 86.0 °F 84.2 °F 53.6 °F 33% 29.89 in 6.2 mi East 9.2 mph - N/A   Partly Cloudy
3:00 PM 87 °F - 54 °F 23% 29.89 in 6 mi East 9.2 mph - -   Scattered Clouds
3:50 PM 87.8 °F 85.7 °F 53.6 °F 31% 29.86 in 6.2 mi East 9.2 mph - N/A   Partly Cloudy
4:50 PM 86.0 °F 84.2 °F 53.6 °F 33% 29.86 in 6.2 mi East 10.4 mph - N/A   Partly Cloudy
5:50 PM 84.2 °F 83.0 °F 55.4 °F 37% 29.86 in 6.2 mi ENE 15.0 mph - N/A   Partly Cloudy
6:50 PM 80.6 °F 80.5 °F 55.4 °F 42% 29.86 in 6.2 mi ENE 16.1 mph - N/A   Partly Cloudy
7:50 PM 77.0 °F - 55.4 °F 47% 29.86 in 6.2 mi ENE 13.8 mph - N/A   Partly Cloudy
8:50 PM 73.4 °F - 55.4 °F 53% 29.89 in 6.2 mi East 11.5 mph - N/A   Partly Cloudy
9:50 PM 73.4 °F - 55.4 °F 53% 29.92 in 6.2 mi East 9.2 mph - N/A   Partly Cloudy
10:50 PM 73.4 °F - 57.2 °F 57% 29.92 in 6.2 mi East 5.8 mph - N/A   Partly Cloudy
11:50 PM 71.6 °F - 57.2 °F 60% 29.95 in 6.2 mi Calm Calm - N/A   Partly Cloudy